Location: Eindhoven
(51.4416°N, 5.4697°E)
Time: 03:53:46
(UTC+01:00)

deb Explorer IX - Pass Details

Date: 18 November 2019
Orbit: 545 x 1105 km, 38.8° (Epoch: 06 December)

Event Time Altitude Azimuth Distance (km) Brightness Sun altitude
Rises 05:20:38 0° 252° (WSW) 3,335 - -24.5°
Reaches altitude 10° 05:24:04 10° 234° (SW) 2,279 - -24.0°
Maximum altitude 05:27:26 17° 194° (SSW) 1,722 - -23.5°
Exits shadow 05:27:28 17° 194° (SSW) 1,721 ? -23.5°
Drops below altitude 10° 05:30:32 10° 154° (SSE) 2,056 ? -23.0°
Sets 05:33:24 0° 134° (SE) 2,876 ? -22.5°
